Regional Weather Roundup
Issued by NWS Albany, NY

Home | Current Version | Previous Version | Text Only | Print | Product List | Glossary On
Versions: 1 2 3 4 5 6 7 8 9 10 11 12 13 14 15 16 17 18 19 20 21 22 23 24 25 26 27 28 29 30 31 32 33 34 35 36 37 38 39 40 41 42 43 44 45 46 47 48 49 50
000
ASUS41 KALY 062210
RWRALY

NEW YORK STATE HOURLY WEATHER ROUNDUP
NATIONAL WEATHER SERVICE ALBANY NY
600 PM EDT MON JUL 06 2015

NOTE: "FAIR" INDICATES FEW OR NO CLOUDS BELOW 12,000 FEET WITH NO
SIGNIFICANT WEATHER AND/OR NO OBSTRUCTIONS TO VISIBILITY.

NYZ032-033-038>043-046>054-057>066-NYZ062>081-062300-
EAST


CITY           SKY/WX    TMP DP  RH WIND       PRES   REMARKS
ALBANY         MOSUNNY   84  62  47 S6        30.08S
GLENS FALLS    SUNNY     82  60  47 S9        30.07F
POUGHKEEPSIE   PTSUNNY   81  65  58 S6        30.10S
NEWBURGH       CLOUDY    81  70  69 VRB6      30.13  HAZE
MONTGOMERY     CLOUDY    80  68  66 SE8       30.10F
WHITE PLAINS   PTSUNNY   78  67  68 SE9       30.13S
ISLIP          CLOUDY    77  64  64 S8        30.12F
NEW YORK CITY  PTSUNNY   82  65  56 SE8G16    30.11S
CENTRAL PARK   CLOUDY    79  65  62 MISG      30.15S
$$

NYZ005>009-017-018-044>046-055-056-062300-
CENTRAL


CITY           SKY/WX    TMP DP  RH WIND       PRES   REMARKS
FULTON         MOSUNNY   81  67  62 S9G20     30.03F
SYRACUSE       PTSUNNY   82  67  60 S12       30.03F
ROME           PTSUNNY   83  62  49 S7        30.07S
ELMIRA         MOSUNNY   80  69  69 S10       30.05F
BINGHAMTON     PTSUNNY   76  67  73 S8        30.11F
MONTICELLO     PTSUNNY   79  66  65 S8        30.15F
$$

NYZ026>034-041>043-062300-
NORTH


CITY           SKY/WX    TMP DP  RH WIND       PRES   REMARKS
WATERTOWN      SUNNY     83  60  45 S7        30.01F
FORT DRUM      NOT AVBL
MASSENA        MOSUNNY   83  60  45 SW3       30.02F
SARANAC LAKE   SUNNY     79  46  31 SW12      30.08F
PLATTSBURGH    SUNNY     80  63  55 S8        30.03F
$$

NYZ001>004-010>016-019>021-062300-
WEST


CITY           SKY/WX    TMP DP  RH WIND       PRES   REMARKS
NIAGARA FALLS  PTSUNNY   82  67  60 N9        29.97F
BUFFALO        TSTM      72  69  90 S14G31    30.01R FOG
DUNKIRK        MOSUNNY   79  68  69 N6        29.99F
JAMESTOWN      PTSUNNY   73  64  73 S9        30.07S
WELLSVILLE     PTSUNNY   75  65  70 S9        30.11F
ROCHESTER      PTSUNNY   85  66  53 S13       30.00F
PENN YAN       CLOUDY    81  67  62 S10       30.05F
$$

             KEY
       WCI = WIND CHILL INDEX
       VSB = VISIBILITY
       HX  = HEAT INDEX
$$



USA.gov is the U.S. government's official web portal to all federal, state and local government web resources and services.